Flag for Germany Weather past 2 weeks in Schloss Holte-Stukenbrock, North Rhine-Westphalia, Germany

Now
71 °F

Fog.


Feels Like: 68 °F
Forecast: 60 / 74 °F
Wind: 1 mph from South

Location: Bad Lippspringe

Current Time: Jul 5, 2015 at 7:06:29 AM

Latest Report: Jul 5, 2015 at 5:00 AM


Visibility: 3 mi

Pressure: 30.08 "Hg

Humidity: 91%

Dew point: 68 °F

Location of Schloss Holte-StukenbrockLocation

Historic Weather in Schloss Holte-Stukenbrock — Graph

°F

Schloss Holte-Stukenbrock temperature yesterday

Maximum temperature yesterday: 100 °F (at 4:00 PM)
Minimum temperature yesterday: 67 °F (at 3:00 AM)
Average temperature yesterday: 84 °F

Past Weeks' High & Low Weather Summary

 TemperatureHumidityPressure
High100 °F (Jul 4, 4:00 PM)100% (Jun 28, 5:00 AM)30.25 "Hg (Jun 28, 5:00 AM)
Low48 °F (Jun 23, 5:00 AM)29% (Jul 4, 4:00 PM)29.67 "Hg (Jun 22, 11:00 PM)
Average66 °F68%30.08 "Hg
* Reported Jun 20 5:00 AM — Jul 5 5:00 AM, Schloss Holte-Stukenbrock, Weather by CustomWeather, © 2015

Note: Actual official high and low records may vary slightly from our data, if they occured in-between our weather recording intervals... More about our weather records

Advertising

Schloss Holte-Stukenbrock weather history for previous 24 hours

 ConditionsComfort  
Time TempWeatherWind HumidityBarometerVisibility
5:00 AM
Sun, Jul 5
71 °FFog.1 mph91%30.08 "Hg3 mi
4:00 AM74 °FFog.1 mph85%30.08 "Hg4 mi
3:00 AM75 °FOvercast.1 mph83%30.09 "Hg5 mi
2:00 AM75 °FOvercast.1 mph79%30.09 "Hg5 mi
1:00 AM80 °FPassing clouds.2 mph68%30.08 "Hg7 mi
12:00 AM77 °FClear.1 mph72%30.07 "Hg7 mi
11:00 PM
Sat, Jul 4
83 °FClear.3 mph59%30.06 "Hg9 mi
10:00 PM86 °FClear.2 mph52%30.05 "Hg9 mi
9:00 PM90 °FSunny.3 mph47%30.04 "Hg9 mi
8:00 PM93 °FScattered clouds.6 mph39%30.03 "Hg12 mi
7:00 PM96 °FSunny.5 mph34%30.03 "Hg9 mi
6:00 PM97 °FSunny.6 mph32%30.01 "Hg9 mi
5:00 PM98 °FSunny.7 mph32%30.01 "Hg6 mi
4:00 PM100 °FPartly sunny.5 mph29%30.01 "Hg11 mi
3:00 PM97 °FSunny.3 mph31%30.01 "Hg11 mi
2:00 PM96 °FSunny.5 mph33%30.03 "Hg9 mi
1:00 PM93 °FSunny.6 mph38%30.04 "Hg9 mi
12:00 PM92 °FSunny.5 mph42%30.05 "Hg9 mi
11:00 AM90 °FSunny.3 mph46%30.06 "Hg10 mi
10:00 AM88 °FSunny.2 mph48%30.08 "Hg9 mi
9:00 AM84 °FSunny.2 mph50%30.08 "Hg10 mi
8:00 AM82 °FSunny.1 mph52%30.08 "Hg13 mi
7:00 AM76 °FSunny.1 mph69%30.09 "Hg11 mi
Weather by CustomWeather, © 2015

See weather overviewHow to use our weather pages